Location: Brookview Estates
(36.0476°N, 86.6931°W)
Time: 23:20:22
(UTC+00:00)

PSLV R/B - Pass Details

Date: 30 March 2020
Orbit: 567 x 599 km, 98.2° (Epoch: 26 May)

Event Time Altitude Azimuth Distance (km) Brightness Sun altitude
Rises 10:23:56 0° 167° (SSE) 2,824 7.4 -15.0°
Reaches altitude 10° 10:26:04 10° 167° (SSE) 1,928 6.6 -14.5°
Maximum altitude 10:30:16 88° 249° (WSW) 604 3.9 -13.7°
Drops below altitude 10° 10:34:30 10° 347° (NNW) 1,944 6.6 -12.9°
Sets 10:36:41 0° 348° (NNW) 2,849 7.5 -12.5°
